Change the Weather History Date:

Wednesday, October 2, 2013

  Actual Average Record
Temperature  
Mean Temperature 56 °F 52 °F  
Max Temperature 71 °F 65 °F 92 °F (1910)
Min Temperature 40 °F 38 °F 17 °F (1974)
Degree Days  
Heating Degree Days 9 14  
Month to date heating degree days 18 27  
Since 1 July heating degree days 184 301  
Cooling Degree Days 0 0  
Month to date cooling degree days 0 0  
Year to date cooling degree days 580 523  
Growing Degree Days 5 (Base 50)    
Moisture  
Dew Point 43 °F    
Average Humidity 64    
Maximum Humidity 93    
Minimum Humidity 34    
Precipitation  
Precipitation T in 0.08 in 1.02 in (1941)
Month to date precipitation T 0.16  
Year to date precipitation 16.20 18.64  
Snow  
Snow 0.00 in - - ()
Month to date snowfall 0.0  
Since 1 July snowfall 0.0  
Snow Depth 0.00 in    
Sea Level Pressure  
Sea Level Pressure 29.92 in    
Wind  
Wind Speed 6 mph (NNE)    
Max Wind Speed 20 mph    
Max Gust Speed 23 mph    
Visibility 10 miles    
Events Rain    
T = Trace of Precipitation, MM = Missing Value Source: NWS Daily Summary

Daily Weather History Graph

Daily Weather History Graph

Search for Another Location

Airport or City:

Trip Planner

Search our weather history database for the weather conditions in past years. The results will help you decide how hot, cold, wet, or windy it might be!

Date:

Astronomy

Oct. 02, 2013 Rise Set
Actual Time 7:33 AM CDT 7:11 PM CDT
Civil Twilight 7:03 AM CDT 7:40 PM CDT
Nautical Twilight 6:29 AM CDT 8:15 PM CDT
Astronomical Twilight 5:54 AM CDT 8:49 PM CDT
Moon 5:02 AM CDT (10/2) 5:52 PM CDT (10/2)
Length of Visible Light 12h 36m
Length of Day
11h 38m
Waning Crescent, 6% of the Moon is Illuminated
Oct 2
Waning Crescent
Oct 4
New
Oct 11
First Quarter
Oct 18
Full
Oct 26
Last Quarter

Hourly Weather History & Observations

Time (CDT) Temp. Dew Point Humidity Pressure Visibility Wind Dir Wind Speed Gust Speed Precip Events Conditions
12:53 AM 41.0 °F 36.0 °F 82% 29.98 in 10.0 mi Calm Calm - N/A   Clear
1:53 AM 43.0 °F 36.0 °F 76% 29.97 in 10.0 mi Calm Calm - N/A   Clear
2:53 AM 41.0 °F 35.1 °F 79% 29.96 in 10.0 mi Calm Calm - N/A   Clear
3:53 AM 46.0 °F 39.0 °F 76% 29.94 in 10.0 mi Calm Calm - N/A   Scattered Clouds
4:53 AM 48.0 °F 42.1 °F 80% 29.95 in 10.0 mi NNE 3.5 mph - 0.00 in Rain Light Rain
5:53 AM 46.9 °F 41.0 °F 80% 29.93 in 10.0 mi Calm Calm - 0.00 in   Clear
6:53 AM 48.0 °F 42.1 °F 80% 29.92 in 10.0 mi Calm Calm - N/A   Clear
7:53 AM 46.0 °F 42.1 °F 86% 29.92 in 10.0 mi Calm Calm - N/A   Clear
8:53 AM 50.0 °F 45.0 °F 83% 29.93 in 10.0 mi Calm Calm - N/A   Clear
9:53 AM 54.0 °F 46.0 °F 75% 29.92 in 8.0 mi NNE 4.6 mph - N/A   Clear
10:53 AM 63.0 °F 39.0 °F 41% 29.90 in 10.0 mi SSE 10.4 mph - N/A   Clear
11:53 AM 66.9 °F 37.0 °F 33% 29.90 in 10.0 mi Calm Calm - N/A   Overcast
12:53 PM 68.0 °F 41.0 °F 37% 29.85 in 10.0 mi SE 5.8 mph - N/A   Overcast
1:53 PM 69.1 °F 46.0 °F 44% 29.83 in 10.0 mi SE 8.1 mph - N/A   Overcast
2:53 PM 70.0 °F 46.0 °F 42% 29.83 in 10.0 mi NW 6.9 mph - N/A   Overcast
3:53 PM 64.9 °F 48.0 °F 54% 29.85 in 10.0 mi NNE 15.0 mph 21.9 mph N/A   Mostly Cloudy
4:53 PM 62.1 °F 48.0 °F 60% 29.86 in 9.0 mi NE 16.1 mph - N/A   Mostly Cloudy
5:53 PM 57.9 °F 46.0 °F 65% 29.90 in 10.0 mi NE 12.7 mph - N/A   Overcast
6:53 PM 55.0 °F 46.0 °F 72% 29.92 in 10.0 mi NNE 12.7 mph - N/A   Partly Cloudy
7:53 PM 52.0 °F 46.0 °F 80% 29.94 in 10.0 mi NNE 9.2 mph - N/A   Clear
8:53 PM 50.0 °F 46.9 °F 89% 29.96 in 10.0 mi NNE 9.2 mph - N/A   Clear
9:53 PM 48.9 °F 46.0 °F 90% 29.97 in 10.0 mi North 8.1 mph - N/A   Clear
10:53 PM 46.9 °F 45.0 °F 93% 29.97 in 10.0 mi North 10.4 mph - N/A   Clear
11:53 PM 46.9 °F 44.1 °F 90% 29.95 in 10.0 mi NNE 6.9 mph - N/A   Clear